Hourly Weather Roundup
Issued by NWS Central Illinois

Home | Current Version | Previous Version | Text Only | Print | Product List | Glossary On
Versions: 1 2 3 4 5 6 7 8 9 10 11 12 13 14 15 16 17 18 19 20 21 22 23 24 25 26 27 28 29 30 31 32 33 34 35 36 37 38 39 40 41 42 43 44 45 46 47 48 49 50
000
NZUS43 KILX 050310
HWRILX

AREA WEATHER ROUNDUP
NATIONAL WEATHER SERVICE, LINCOLN IL
900 PM CST WED MAR 04 2015


CITY           SKY/WX    TMP DP  RH WIND       PRES   REMARKS
BLOOMINGTON    CLOUDY    17   4  56 NW10      30.33F WCI   5
CHAMPAIGN      CLOUDY    17   6  62 NW12      30.31R WCI   4
DECATUR        CLOUDY    19   5  54 NW14      30.33S WCI   6
EFFINGHAM      NOT AVBL
FLORA          NOT AVBL
GALESBURG      NOT AVBL
JACKSONVILLE   NOT AVBL
LACON          NOT AVBL
LAWRENCEVILLE  CLOUDY    20   9  62 N14       30.31R WCI   7
LITCHFIELD     NOT AVBL
$$


CITY           SKY/WX    TMP DP  RH WIND       PRES   REMARKS
LINCOLN        CLOUDY    19   7  58 N3        30.37F
MACOMB         MOCLDY    15  10  80 CALM      30.38S
MATTOON        CLOUDY    18   7  62 N17       30.30S WCI   3
MT CARMEL AP   CLOUDY    23  10  58 N12       30.31R WCI  12
OLNEY-NOBLE AP NOT AVBL
PARIS          NOT AVBL
PEORIA         PTCLDY    17   1  49 N5        30.37R WCI  10
PONTIAC        NOT AVBL
RANTOUL        NOT AVBL
ROBINSON       NOT AVBL
SPRINGFIELD    CLOUDY    19   6  57 N7        30.35F WCI  10
TAYLORVILLE    NOT AVBL
$$

...REGIONAL REPORTS...


CITY           SKY/WX    TMP DP  RH WIND       PRES   REMARKS
CHICAGO O`HARE MOCLDY    15   0  51 W13       30.32R WCI   1
KANKAKEE       NOT AVBL
MOLINE         PTCLDY    14   0  53 NW8       30.37S WCI   3
MOUNT VERNON   CLOUDY    21   7  53 N6        30.33R WCI  14
PITTSFIELD     NOT AVBL
QUINCY         MOCLDY    19   6  57 CALM      30.36S
ROCKFORD       MOCLDY    10  -3  55 NW12      30.34R WCI  -5
$$


CITY           SKY/WX    TMP DP  RH WIND       PRES   REMARKS
BURLINGTON     CLOUDY    17   6  62 CALM      30.36S
CEDAR RAPIDS   PTCLDY     7   0  73 NW6       30.37R WCI  -3
DES MOINES     PTCLDY    16   3  56 N12       30.41R WCI   3
KIRKSVILLE     NOT AVBL
OTTUMWA        FLURRIES  18  10  71 N13       30.38R WCI   5
ST LOUIS       CLOUDY    23   4  44 N9        30.36S WCI  13
$$


CITY           SKY/WX    TMP DP  RH WIND       PRES   REMARKS
TERRE HAUTE    CLOUDY    18   7  62 N10       30.31R WCI   6
EVANSVILLE     HAZE      20  15  81 N10G18    30.30R VSB 3/4 WCI   9
INDIANAPOLIS   CLOUDY    20  10  65 NW12      30.24R WCI   8
LAFAYETTE      CLOUDY    17   8  67 NW16G22   30.30R WCI   2
MADISON        PTCLDY    11  -5  48 W7        30.31R WCI   0
MILWAUKEE      MOCLDY    14  -6  40 NW6       30.31R WCI   5
$$





USA.gov is the U.S. government's official web portal to all federal, state and local government web resources and services.